ECMWFNIL_925_thetae_021.txt.gz
Theta_e
277 277 277 276 276 276 276 276 276 276 275 275 275 275 275 275 275 275 274 274 274 274 274 274 274 274 274 275 275 276 277 279 280 280 283 286 287 290 293 296 296 296
277 276 276 276 276 275 275 275 275 275 275 275 275 275 275 275 274 274 274 274 274 273 273 273 273 274 274 274 274 275 276 277 278 279 282 284 285 288 292 295 296 296
276 276 275 275 275 275 275 275 275 274 274 274 274 274 274 274 274 274 274 273 273 273 273 273 273 273 273 273 274 274 275 276 277 280 281 282 284 287 290 294 295 295
275 275 274 274 274 274 274 274 274 274 274 274 274 274 274 274 274 273 273 273 273 273 272 272 272 272 273 273 273 274 274 275 277 279 281 281 283 286 289 292 295 295
274 274 274 274 274 273 273 273 273 273 274 274 274 274 274 273 273 273 273 273 273 272 272 272 272 272 272 272 273 273 274 276 277 279 280 281 283 285 288 291 294 295
274 273 273 273 273 273 273 273 273 273 273 273 273 273 273 273 273 273 272 272 272 272 272 272 271 272 272 272 272 273 275 276 277 279 280 281 282 285 287 289 293 295
273 273 272 272 272 272 272 272 273 273 273 273 273 273 272 272 272 272 272 272 272 271 271 271 271 271 272 272 272 273 274 275 276 277 279 280 282 284 286 289 292 294
272 272 272 272 272 272 272 272 272 272 272 272 272 272 272 272 272 272 272 272 271 271 271 271 271 271 272 272 272 272 273 273 274 276 278 280 282 283 285 288 292 294
272 271 271 271 271 272 272 272 272 272 272 272 272 272 272 272 272 272 271 271 271 271 271 271 271 272 272 272 272 272 272 273 274 276 278 279 281 282 283 286 291 293
271 271 271 271 271 271 271 271 271 271 271 271 271 271 271 271 271 271 270 270 270 270 270 271 271 272 272 272 273 273 273 274 275 276 278 279 280 281 282 285 289 292
271 271 271 271 271 271 271 271 271 271 271 271 270 270 270 270 269 270 270 269 270 270 270 271 271 271 272 272 273 274 274 274 275 276 277 278 279 280 281 283 287 291
270 270 270 270 270 270 270 270 270 270 270 269 269 269 269 269 268 269 269 269 269 269 270 270 270 271 271 271 272 273 273 273 274 274 275 276 278 279 281 282 285 289
270 270 269 269 270 270 270 270 269 269 269 268 268 268 268 268 268 268 268 268 268 269 269 270 270 270 271 271 271 272 272 273 273 274 275 276 277 279 281 282 284 288
269 269 269 269 269 269 269 268 268 268 267 267 267 267 267 267 267 267 267 268 268 268 269 269 270 270 270 271 271 272 272 272 273 274 275 276 278 279 281 282 285 287
268 268 268 268 268 268 267 267 267 266 266 266 266 266 266 266 266 267 267 267 267 268 269 269 270 270 270 271 271 272 272 272 273 274 275 277 278 279 280 282 285 287
268 268 268 268 267 266 266 266 265 265 265 265 265 265 266 266 266 266 267 267 267 268 269 269 270 270 271 271 272 273 274 274 274 275 276 277 278 279 280 282 285 287
267 267 267 266 266 265 265 265 265 265 265 265 265 265 265 266 266 266 267 267 267 268 269 270 270 270 271 272 273 274 275 275 276 276 277 277 278 279 281 282 283 286
266 266 265 265 264 264 264 264 264 264 264 265 265 265 266 266 266 266 267 267 268 268 269 270 270 271 272 273 274 274 275 275 276 276 276 277 278 279 281 282 283 285
265 265 264 264 264 264 264 264 264 264 264 265 265 266 266 266 267 267 267 268 268 269 269 270 270 271 272 273 274 275 276 276 276 276 276 276 277 279 281 282 282 284
264 263 263 263 263 263 263 263 264 264 265 265 266 266 266 267 267 267 268 268 269 269 270 270 271 271 272 274 275 275 276 276 276 276 276 277 277 278 280 282 283 284
263 262 262 262 263 263 263 263 264 264 265 266 266 266 267 267 267 268 268 269 269 270 270 271 271 272 273 275 276 276 276 277 276 276 277 277 278 279 280 282 282 283
262 262 262 262 262 262 263 263 264 265 265 266 266 266 266 266 267 267 268 268 269 270 271 271 272 273 274 275 276 277 277 277 277 276 277 278 278 280 281 282 282 282
261 261 261 261 262 262 263 264 264 265 265 265 265 265 265 266 266 266 267 268 269 270 271 272 272 273 274 276 276 277 277 277 277 277 277 278 279 280 281 282 282 282
260 261 261 261 262 262 263 264 264 265 265 265 265 265 265 265 265 266 267 268 269 270 271 272 273 274 275 276 277 277 277 277 277 277 277 277 279 281 282 282 282 282
260 261 261 261 262 262 263 264 264 264 264 264 264 264 264 265 265 266 267 268 269 270 271 273 274 274 275 276 277 277 278 278 277 277 277 277 279 280 282 282 282 282
261 261 261 261 262 263 263 263 264 264 264 264 263 264 264 265 265 266 267 268 269 270 271 272 274 275 276 277 277 278 278 278 278 278 277 278 279 280 281 282 283 283

ECMWFNIL_925_thetae_024.txt.gz
Theta_e
277 276 276 276 276 275 275 275 275 274 274 274 274 275 275 275 275 274 274 274 274 274 274 274 274 274 274 273 273 273 273 273 273 273 274 274 275 275 276 277 278 280
276 276 276 275 275 275 274 274 274 274 274 274 274 274 274 274 274 274 274 274 274 274 274 273 273 273 273 273 273 273 273 273 273 273 273 273 274 274 275 275 276 278
276 276 275 275 274 274 274 274 274 273 273 274 274 274 274 274 274 274 274 273 273 273 273 273 273 273 273 273 273 273 272 272 272 273 273 273 273 274 274 275 276 277
276 275 275 274 274 274 273 273 273 273 273 273 273 273 273 273 273 273 273 273 273 273 273 273 273 273 273 273 273 272 272 272 272 272 272 272 273 273 274 274 275 277
275 275 274 273 273 273 273 273 273 273 273 273 273 273 273 273 273 272 272 272 272 272 273 273 273 273 273 272 272 272 272 272 272 272 272 272 273 273 274 275 276 277
274 274 273 273 273 273 272 272 272 272 272 272 272 272 272 272 272 272 272 272 272 272 272 272 272 272 272 272 272 271 271 271 272 272 272 272 273 273 274 276 277 279
273 273 273 273 272 272 272 272 272 272 272 272 272 272 272 272 272 271 272 272 272 271 271 272 272 272 271 271 271 271 271 271 272 272 272 272 273 273 274 275 276 278
273 273 272 272 272 272 272 272 272 272 271 271 271 271 271 271 271 271 271 271 271 271 271 270 271 271 271 271 271 271 271 271 272 272 272 272 273 273 273 273 274 276
273 273 272 272 272 272 271 271 271 271 271 271 271 271 271 270 270 270 270 270 270 270 270 270 270 270 270 270 271 271 271 271 272 272 273 273 273 273 273 273 274 275
273 272 272 271 271 271 271 271 270 270 270 270 270 270 269 269 269 269 269 269 269 269 269 269 269 269 269 270 270 270 271 271 271 272 272 273 274 274 274 274 275 276
272 272 271 271 270 270 270 270 270 270 269 269 268 268 268 268 268 268 268 268 268 268 268 268 268 268 269 269 269 270 270 271 271 271 271 272 273 274 274 274 275 277
272 271 270 269 269 269 269 269 269 268 268 267 267 267 267 267 267 267 267 267 267 267 267 267 268 268 268 268 269 269 270 270 271 271 271 272 272 273 273 273 274 275
270 270 269 269 268 269 268 268 267 267 267 266 266 266 266 266 266 266 266 266 266 267 267 267 267 267 268 268 268 269 270 270 271 271 271 272 272 273 273 273 274 274
269 268 268 268 268 268 267 267 267 266 266 266 265 265 265 265 265 266 266 266 266 266 267 267 267 268 268 268 269 269 270 270 271 271 271 272 272 272 273 273 274 275
268 268 268 267 267 267 267 267 266 265 265 265 265 265 265 265 265 265 266 266 266 267 267 267 267 268 268 268 269 270 270 271 271 271 271 272 272 272 273 273 274 275
267 267 267 266 266 266 266 266 265 264 264 264 264 264 265 265 265 266 266 266 267 267 267 267 268 268 269 270 271 272 272 272 273 273 273 273 273 273 274 274 275 276
266 266 266 266 266 266 266 265 264 264 264 264 264 265 265 265 266 266 267 267 267 267 267 268 268 269 269 271 272 273 274 274 274 274 275 275 275 275 275 275 276 277
265 265 265 266 266 266 265 264 263 263 264 264 264 265 265 266 266 266 266 267 267 267 267 268 268 269 270 272 273 274 275 275 276 276 276 276 276 276 276 276 276 276
264 265 266 266 265 265 264 263 263 263 263 264 264 265 265 266 266 266 266 266 266 266 266 267 267 268 270 271 273 274 275 276 276 277 277 277 277 276 276 276 276 276
264 265 266 265 264 264 263 263 263 263 263 264 264 265 265 265 265 265 265 265 265 266 266 266 267 268 270 271 273 274 275 276 277 278 278 277 277 277 276 276 276 276
265 265 265 265 264 263 262 262 263 263 263 264 264 265 265 265 265 265 265 265 265 265 266 266 267 268 270 272 273 275 276 277 277 278 278 278 278 277 277 277 276 276
266 265 264 264 263 262 262 262 262 263 263 264 264 264 264 264 264 264 264 264 265 265 266 266 267 268 270 272 273 275 276 277 278 278 279 278 278 277 277 277 277 277
266 264 263 262 262 262 262 262 262 263 263 263 264 264 264 264 264 264 264 265 265 266 266 267 268 269 270 272 273 275 276 278 278 279 279 278 278 278 277 277 277 277
266 264 262 261 261 261 261 262 262 262 263 263 263 263 263 263 264 264 265 265 266 267 267 268 269 269 271 272 274 275 276 277 278 278 279 278 278 277 277 277 277 277
265 263 262 261 261 261 261 262 262 262 262 262 263 263 263 263 264 264 265 266 267 267 268 268 269 269 271 272 274 275 276 276 277 278 279 279 278 278 277 277 277 277
265 263 262 261 261 261 261 261 262 262 262 262 262 262 263 263 264 265 266 267 267 268 268 269 269 270 271 272 273 274 275 276 277 278 278 279 279 278 278 277 277 277

ECMWFNIL_925_thetae_030.txt.gz
Theta_e
282 281 281 280 280 280 279 279 279 279 278 278 278 278 278 278 278 278 278 279 279 279 279 279 278 277 277 277 277 277 277 277 277 277 277 277 277 277 277 277 278 278
282 281 280 280 279 279 279 278 278 278 277 277 277 277 277 277 277 277 278 278 278 278 278 278 277 277 276 276 276 276 276 276 276 277 277 277 277 277 277 277 277 277
281 280 280 279 279 279 278 278 277 277 277 277 277 277 276 276 276 277 277 277 277 277 277 276 276 276 276 276 276 276 276 276 276 276 276 276 276 277 277 277 277 277
280 280 279 279 279 278 278 277 277 277 276 276 276 276 276 276 276 276 277 276 276 276 275 275 275 275 275 275 275 275 275 275 275 275 276 276 276 276 276 276 277 277
280 279 279 279 278 278 278 277 277 277 276 276 276 276 276 276 276 276 276 275 275 275 275 274 274 274 274 274 274 274 274 275 275 275 275 275 275 275 275 276 276 276
280 279 279 278 278 278 278 277 277 276 276 276 276 276 276 276 276 275 275 274 274 274 274 274 274 273 273 273 273 273 273 274 274 274 274 274 274 275 275 275 275 275
279 279 278 278 278 278 277 277 277 276 276 276 276 276 275 276 276 275 274 273 273 273 273 273 273 272 272 272 273 273 273 273 273 273 273 273 273 274 274 275 275 274
279 278 278 278 277 277 277 277 276 276 276 276 275 275 275 276 275 274 273 273 272 272 272 272 272 272 272 272 272 272 272 272 272 272 272 273 273 274 274 274 273 273
278 278 277 277 277 276 276 276 276 276 276 275 275 275 276 275 274 274 273 272 272 271 271 271 271 271 271 271 271 271 271 271 271 272 272 272 273 274 274 273 272 273
277 277 277 277 277 276 276 276 276 276 276 275 275 275 275 275 274 273 272 271 271 271 271 271 271 271 271 271 271 271 271 271 271 271 271 271 272 273 272 272 272 272
276 276 276 276 276 276 276 276 276 275 275 274 274 274 274 274 273 272 271 271 270 270 270 270 270 270 270 270 271 271 271 271 271 271 272 271 271 272 271 271 271 272
276 276 276 276 276 276 276 275 275 274 274 274 274 274 274 274 273 272 271 270 270 270 270 270 270 270 270 271 271 271 271 271 271 271 272 271 271 271 271 271 271 272
275 276 276 276 276 275 275 275 275 274 274 274 274 274 274 273 272 271 270 269 269 269 269 270 270 270 270 271 271 271 271 271 271 271 271 271 271 271 271 271 272 272
275 276 276 276 275 275 274 274 274 274 274 274 274 274 273 272 271 270 269 269 269 269 269 270 270 270 270 270 270 270 271 271 271 271 271 272 272 272 272 272 272 272
275 276 275 275 274 274 274 274 273 274 274 274 275 274 273 272 271 269 268 269 269 269 270 270 270 270 270 270 270 271 271 272 272 272 272 272 273 273 273 273 274 274
275 275 275 274 274 274 274 273 273 273 274 274 274 273 272 271 270 269 268 269 269 269 269 269 269 269 269 270 271 272 272 273 273 273 273 273 273 274 274 274 275 275
274 274 274 273 273 273 273 273 272 273 274 274 273 272 271 270 269 268 269 269 269 269 269 269 269 269 269 270 272 273 273 273 273 274 274 274 275 275 275 276 276 276
274 274 273 273 273 273 273 272 272 273 274 273 272 271 270 269 268 268 268 268 268 268 268 268 268 269 270 271 272 272 273 274 274 274 275 275 276 276 276 276 276 276
273 273 273 273 273 272 272 272 272 273 273 271 270 269 268 268 268 267 267 267 268 267 268 268 268 268 269 271 272 273 274 274 275 275 275 275 276 276 276 276 276 276
273 273 272 272 272 272 271 271 273 273 271 270 268 267 267 267 267 267 267 267 267 267 267 267 267 268 269 271 272 273 274 275 275 275 275 275 275 275 275 275 275 275
272 272 272 272 271 271 271 272 273 272 270 268 267 266 266 267 267 267 267 267 266 266 266 267 267 268 270 271 272 273 274 275 275 275 275 275 275 274 275 275 275 275
272 272 272 271 271 270 271 272 272 270 267 267 266 266 266 266 266 266 266 266 266 266 266 267 268 269 270 271 272 273 274 274 274 274 274 274 274 274 274 274 274 275
272 271 271 271 270 270 271 272 271 268 266 266 266 266 266 265 265 266 266 266 266 266 266 267 268 269 270 271 272 273 274 274 274 274 274 274 274 275 275 275 275 275
271 271 271 270 270 270 271 271 269 267 266 266 265 265 265 265 265 265 265 266 266 266 267 267 268 269 270 271 272 273 274 274 274 274 274 274 275 275 275 275 275 275
271 271 270 270 270 270 271 270 268 267 266 266 265 265 265 265 265 265 265 265 266 267 267 268 269 269 270 271 272 273 274 274 274 274 275 275 275 275 275 275 275 275
270 270 270 269 269 270 270 269 268 267 267 266 266 265 264 264 264 264 265 265 266 267 268 268 269 269 270 271 272 273 274 274 274 275 275 275 275 275 275 275 275 275

ECMWFNIL_925_thetae_033.txt.gz
Theta_e
288 288 287 287 287 286 286 285 285 284 284 283 283 283 282 282 282 281 281 280 280 280 279 279 279 279 279 279 279 279 280 280 280 280 280 280 280 280 280 280 280 280
287 287 287 286 286 285 285 284 284 283 283 282 282 282 281 281 281 281 280 280 279 279 279 279 278 279 279 279 279 279 279 279 279 279 279 279 279 279 279 279 279 279
287 286 286 285 285 284 284 283 283 282 282 282 281 281 280 280 280 280 279 279 278 278 278 278 278 278 278 278 278 278 278 278 278 278 278 279 279 279 279 279 279 279
286 286 285 285 284 284 283 283 282 282 282 281 280 280 280 280 280 279 279 278 278 278 278 278 278 278 278 278 278 278 278 278 278 278 278 278 278 278 278 278 278 278
286 285 284 284 283 283 282 282 282 282 281 280 280 280 279 279 279 279 278 278 278 278 278 277 277 277 277 277 277 277 277 277 277 277 277 277 277 277 277 277 277 277
285 284 284 283 283 282 282 282 281 281 280 280 279 279 278 278 278 278 278 278 277 277 277 277 277 277 277 276 276 276 276 276 276 276 276 276 276 276 276 276 277 277
284 283 283 283 282 282 282 281 281 280 280 279 279 278 278 278 278 278 277 277 277 276 276 276 276 276 276 276 275 275 275 275 275 275 275 275 275 275 275 275 276 276
283 283 282 282 282 281 281 280 280 279 279 278 278 278 278 277 277 277 276 276 276 275 275 275 275 275 275 275 275 275 275 275 274 274 274 274 275 275 275 275 275 275
283 282 282 281 281 280 280 280 279 278 278 278 278 277 277 277 276 276 276 275 275 275 275 275 275 274 274 274 274 274 274 274 274 274 274 274 274 274 274 274 274 274
282 281 281 280 280 280 279 279 278 278 278 278 277 277 276 276 276 275 275 274 274 274 274 274 274 274 274 274 273 273 273 273 273 273 273 273 274 274 274 274 274 274
281 280 280 279 279 279 278 278 277 277 277 277 277 276 276 275 275 274 274 274 274 274 274 274 274 273 273 273 273 273 273 273 273 273 273 273 273 273 273 273 274 274
280 280 279 279 279 278 278 277 277 277 277 276 276 275 275 274 274 274 274 273 273 274 274 273 273 273 273 273 273 273 273 273 273 273 273 273 273 273 273 273 273 274
279 279 279 278 278 278 277 277 277 276 276 276 275 275 274 274 274 273 273 273 274 274 273 273 273 273 273 273 273 273 273 273 273 273 273 273 273 273 273 273 273 273
279 279 279 278 277 277 277 277 276 276 275 275 275 275 275 275 274 273 273 273 273 273 273 273 273 273 273 273 273 273 272 273 273 273 273 274 274 274 274 274 273 273
279 278 278 277 277 277 276 276 276 276 275 275 275 275 275 275 274 273 273 273 273 273 273 273 272 272 273 273 272 272 273 273 273 274 274 274 274 274 274 274 274 274
278 278 277 277 276 276 276 275 275 275 275 275 275 275 275 275 273 273 273 272 272 272 272 272 272 272 273 273 273 273 274 274 274 275 275 275 275 275 275 275 275 275
277 277 276 276 276 276 275 275 275 275 275 275 275 275 275 274 273 273 272 272 272 272 272 272 272 272 272 273 273 274 274 275 275 275 275 275 275 276 276 276 276 276
277 276 276 276 275 275 275 275 275 275 275 275 275 274 274 273 273 272 272 271 271 271 272 272 272 272 272 272 273 274 275 275 275 275 275 276 276 276 276 276 276 276
276 276 276 275 275 275 275 275 275 274 274 274 274 274 273 273 273 272 271 271 271 271 271 271 272 272 272 272 273 274 275 275 276 276 276 276 276 275 275 275 275 275
276 276 275 274 274 275 275 274 274 274 274 274 274 273 272 272 272 271 270 270 270 270 270 271 272 273 272 272 273 274 275 276 276 276 275 275 275 275 275 275 275 275
275 275 274 274 274 274 274 274 274 274 274 273 273 272 271 272 272 270 270 270 270 270 270 270 272 273 272 272 273 274 275 275 275 275 275 275 275 275 275 275 275 275
275 275 274 273 274 273 273 273 273 273 273 272 272 271 271 271 271 270 270 270 270 270 269 269 272 273 271 272 273 274 275 275 274 274 275 275 275 275 275 275 275 275
275 275 274 273 273 273 273 273 273 272 272 271 271 270 270 270 270 269 269 270 270 270 269 268 271 272 271 271 273 273 274 274 274 274 274 274 275 275 275 275 275 275
275 275 274 273 273 273 273 273 272 271 271 271 271 270 270 270 269 268 269 269 269 270 269 268 270 271 271 271 273 273 274 274 274 274 274 274 275 275 275 275 275 276
274 274 274 273 273 273 273 272 271 271 271 271 270 270 270 269 267 267 269 270 269 269 269 269 269 270 270 271 272 273 274 274 274 274 274 275 275 275 275 275 275 275
273 273 273 273 273 272 272 272 271 271 270 270 269 269 268 267 267 267 268 269 269 269 269 269 269 270 270 271 272 273 273 274 274 274 275 275 275 275 275 275 275 274